Historique des stations

Station météo de Tauxigny

Altitude de la station : 90 m







Données météorologiques pour le 04/12/2022
Date
Heure
Températures Humidité Point de rosée Vitesse
du vent
Direction Rafales Windchill Pression Pluviométrie
Cumul
Date
Heure
Températures Humidité Point de rosée Vitesse
du vent
Direction Rafales Windchill Pression Pluviométrie
Cumul
04/12/2022 10:263.5 °C95 %2.8 °C6 km/hENE10 km/h3.31011 hPa0.5 mm
04/12/2022 10:163.5 °C95 %2.8 °C3 km/hSE11 km/h2.41010 hPa0.5 mm
04/12/2022 09:563.5 °C94 %2.6 °C6 km/hENE15 km/h3.31010 hPa0.5 mm
04/12/2022 09:463.4 °C95 %2.7 °C5 km/hENE10 km/h2.31010 hPa0.5 mm
04/12/2022 09:263.2 °C95 %2.5 °C5 km/hNNE10 km/h2.21010 hPa0.5 mm
04/12/2022 09:163.2 °C95 %2.4 °C2 km/hENE11 km/h2.11010 hPa0.5 mm
04/12/2022 08:563.1 °C95 %2.3 °C10 km/hE15 km/h1.91010 hPa0.5 mm
04/12/2022 08:463.0 °C95 %2.3 °C5 km/hESE11 km/h1.31010 hPa0.5 mm
04/12/2022 08:362.9 °C95 %2.2 °C5 km/hENE15 km/h1.81010 hPa0.5 mm
04/12/2022 08:262.9 °C95 %2.2 °C3 km/hENE13 km/h1.21010 hPa0.5 mm
04/12/2022 08:162.9 °C95 %2.2 °C3 km/hENE13 km/h1.21010 hPa0.5 mm
04/12/2022 07:562.9 °C95 %2.2 °C3 km/hE11 km/h1.21010 hPa0.5 mm
04/12/2022 07:462.9 °C95 %2.2 °C6 km/hNE11 km/h1.21010 hPa0.5 mm
04/12/2022 07:362.9 °C95 %2.2 °C6 km/hE15 km/h1.21010 hPa0.5 mm
04/12/2022 07:262.9 °C95 %2.2 °C8 km/hENE15 km/h1.21010 hPa0.5 mm
04/12/2022 07:162.8 °C95 %2.1 °C5 km/hENE15 km/h1.11010 hPa0.5 mm
04/12/2022 07:062.8 °C94 %2.0 °C6 km/hENE15 km/h1.11010 hPa0.5 mm
04/12/2022 06:562.9 °C94 %2.0 °C5 km/hE13 km/h1.21010 hPa0.5 mm
04/12/2022 06:462.9 °C94 %2.0 °C10 km/hENE15 km/h1.21010 hPa0.5 mm
04/12/2022 06:362.9 °C94 %2.0 °C6 km/hE13 km/h1.21010 hPa0.5 mm
04/12/2022 06:262.8 °C94 %2.0 °C8 km/hENE16 km/h1.11010 hPa0.5 mm
04/12/2022 06:162.8 °C94 %2.0 °C8 km/hENE13 km/h1.11010 hPa0.5 mm
04/12/2022 05:562.9 °C94 %2.0 °C2 km/hENE13 km/h1.21010 hPa0.5 mm
04/12/2022 05:462.8 °C94 %2.0 °C5 km/hENE13 km/h1.71010 hPa0.5 mm
04/12/2022 05:362.8 °C94 %2.0 °C6 km/hE13 km/h1.11010 hPa0.5 mm
04/12/2022 05:262.8 °C94 %2.0 °C6 km/hESE11 km/h1.11010 hPa0.5 mm
04/12/2022 05:162.8 °C94 %2.0 °C6 km/hNE11 km/h1.11010 hPa0.5 mm
04/12/2022 05:062.8 °C94 %2.0 °C5 km/hENE13 km/h1.71010 hPa0.5 mm
04/12/2022 04:562.8 °C94 %2.0 °C3 km/hENE13 km/h1.71010 hPa0.5 mm
04/12/2022 04:462.8 °C94 %2.0 °C2 km/hENE11 km/h1.71010 hPa0.5 mm
04/12/2022 04:362.8 °C94 %1.9 °C6 km/hE15 km/h1.11010 hPa0.5 mm
04/12/2022 04:262.8 °C94 %2.0 °C5 km/hNE15 km/h1.11010 hPa0.5 mm
04/12/2022 04:162.8 °C94 %2.0 °C2 km/hENE16 km/h1.11009 hPa0.5 mm
04/12/2022 04:062.8 °C94 %2.0 °C6 km/hESE13 km/h1.11010 hPa0.5 mm
04/12/2022 03:562.8 °C94 %2.0 °C3 km/hE18 km/h0.61010 hPa0.5 mm
04/12/2022 03:462.8 °C94 %2.0 °C8 km/hE15 km/h1.11010 hPa0.5 mm
04/12/2022 03:362.8 °C94 %2.0 °C8 km/hE16 km/h0.61010 hPa0.5 mm
04/12/2022 03:262.8 °C95 %2.1 °C6 km/hNE15 km/h1.11010 hPa0.5 mm
04/12/2022 03:162.8 °C95 %2.1 °C6 km/hNE19 km/h0.51010 hPa0.5 mm
04/12/2022 03:062.8 °C95 %2.1 °C6 km/hENE15 km/h1.11010 hPa0.5 mm
04/12/2022 02:562.8 °C95 %2.1 °C15 km/hNE16 km/h0.51010 hPa0.5 mm
04/12/2022 02:462.8 °C95 %2.1 °C5 km/hNNE15 km/h1.11010 hPa0.5 mm
04/12/2022 02:362.8 °C95 %2.1 °C6 km/hESE16 km/h1.11010 hPa0.5 mm
04/12/2022 02:262.9 °C95 %2.2 °C8 km/hNE13 km/h1.81010 hPa0.5 mm
04/12/2022 02:162.8 °C95 %2.1 °C3 km/hE18 km/h0.61010 hPa0.5 mm
04/12/2022 02:062.9 °C95 %2.2 °C6 km/hENE16 km/h1.21010 hPa0.5 mm
04/12/2022 01:562.8 °C95 %2.1 °C6 km/hE15 km/h0.61010 hPa0.5 mm
04/12/2022 01:462.8 °C95 %2.1 °C6 km/hESE21 km/h0.21010 hPa0.5 mm
04/12/2022 01:362.8 °C95 %2.1 °C10 km/hESE18 km/h0.21010 hPa0.5 mm
04/12/2022 01:262.8 °C95 %2.1 °C6 km/hE23 km/h-0.21010 hPa0.5 mm
04/12/2022 01:162.8 °C95 %2.1 °C11 km/hENE21 km/h-0.21010 hPa0.5 mm
04/12/2022 00:562.9 °C95 %2.2 °C8 km/hE19 km/h0.71011 hPa0.5 mm
04/12/2022 00:462.9 °C95 %2.2 °C11 km/hE23 km/h0.21010 hPa0.3 mm
04/12/2022 00:362.9 °C95 %2.2 °C8 km/hNE21 km/h0.71011 hPa0.3 mm
04/12/2022 00:263.0 °C95 %2.3 °C3 km/hNNE18 km/h0.81011 hPa0.3 mm
04/12/2022 00:163.0 °C95 %2.3 °C8 km/hE21 km/h0.01011 hPa0.3 mm


Minima :

Température : 2.8 °C
Humidité : 94 %
Point de rosée : 1.9 °C
Vent moyen : 2 km/h
Windchill : -0.2
Pression atm. : 1009 hPa
Maxima :

Température : 3.5 °C
Humidité : 95 %
Point de rosée : 2.8 °C
Vent moyen : 15 km/h
Windchill : 3.3
Pression atm. : 1011 hPa
Rafales max : 23 km/h
Cumul de pluie sur 24H : 0.5 mm

Tauxigny est une commune du département Indre-et-Loire (37).
La station météorologique du réseau de l'association la plus proche de Tauxigny est celle de Luçay-le-Libre



Icône Facebook Association Météo Centre Icône Twitter Association Météo Centre Icône Chaîne Youtube Association Météo Centre Icône contact Association Météo Centre Icône Insta Association Météo Centre